This demonstration page uses our WeatherBlox Daily Observations layout. Learn more.

Left ArrowRight Arrow

Hourly Observations for January 8, 2017

Temp ( °F °C ) Dew Point ( °F °C ) Humidity (%) Winds ( mph kmh ) Pressure ( in mb ) Visibility ( mi km ) Precip ( " mm )
12:58 am 00:58 Clear 2 -16.6 1 -17.4 94 94 Calm 30.71 1040 10 16 0.00 0.00
1:58 am 01:58 Clear 1 -17 -1 -18.1 91 91 E 3 6 30.71 1040 10 16 0.00 0.00
2:58 am 02:58 Clear 3 -16 1 -17 92 92 E 6 9 30.71 1040 10 16 0.00 0.00
3:58 am 03:58 Clear 6 -14.7 4 -15.3 95 95 ESE 7 11 30.70 1040 10 16 0.00 0.00
4:58 am 04:58 Clear 9 -12.9 5 -15 84 84 ESE 10 17 30.66 1038 10 16 0.00 0.00
5:58 am 05:58 Clear 10 -12.5 5 -15.1 81 81 ESE 10 17 30.62 1037 10 16 0.00 0.00
6:58 am 06:58 Clear 11 -11.9 6 -14.5 81 81 ESE 13 20 30.59 1036 10 16 0.00 0.00
7:58 am 07:58 Sunny 12 -11.1 7 -13.9 80 80 SE 13 20 30.58 1036 10 16 0.00 0.00
8:58 am 08:58 Mostly Sunny 14 -9.8 9 -12.8 79 79 ESE 15 24 30.58 1036 10 16 0.00 0.00
9:58 am 09:58 Sunny 17 -8.6 11 -11.8 78 78 ESE 16 26 30.55 1035 10 16 0.00 0.00
10:58 am 10:58 Partly Cloudy 18 -7.6 12 -11.2 76 76 SE 22 35 30.49 1033 10 16 0.00 0.00
11:58 am 11:58 Partly Cloudy 21 -6.2 14 -10.2 74 74 SE 18 30 30.45 1031 10 16 0.00 0.00
12:58 pm 12:58 Mostly Sunny 25 -4 16 -9 69 69 SE 21 33 30.34 1028 10 16 0.00 0.00
1:58 pm 13:58 Mostly Cloudy 27 -2.7 17 -8.3 66 66 SSE 17 28 30.30 1026 10 16 0.00 0.00
2:58 pm 14:58 Sunny 29 -1.9 18 -7.7 65 65 SSE 18 30 30.26 1025 10 16 0.00 0.00
3:58 pm 15:58 Sunny 28 -2 19 -7.2 68 68 SSE 13 20 30.27 1025 10 16 0.00 0.00
4:58 pm 16:58 Sunny 27 -2.9 19 -7.1 73 73 SE 12 19 30.27 1025 10 16 0.00 0.00
5:58 pm 17:58 Clear 25 -4 19 -7 80 80 SE 9 15 30.25 1024 10 16 0.00 0.00
6:58 pm 18:58 Clear 24 -4.6 20 -6.8 85 85 SE 8 13 30.25 1024 10 16 0.00 0.00
7:58 pm 19:58 Clear 19 -7 17 -8.4 90 90 Calm 30.26 1025 10 16 0.00 0.00
8:58 pm 20:58 Clear 14 -9.8 14 -10 98 98 Calm 30.26 1025 10 16 0.00 0.00
9:58 pm 21:58 Clear 13 -10.3 13 -10.5 98 98 Calm 30.26 1025 10 16 0.00 0.00
10:58 pm 22:58 Clear 16 -9 16 -9.1 99 99 WNW 10 17 30.29 1026 10 16 0.00 0.00
11:58 pm 23:58 Clear 20 -6.6 11 -11.6 68 68 WNW 14 22 30.30 1026 10 16 0.00 0.00

Powered by AerisWeather